Charlottesville, VA

8:32 AM EDT on September 19, 2017 (GMT -0400)
Charlottesville-Albemarle

Weather History for KCHO - December, 2013

Change the Weather History Date:

Thursday, December 19, 2013

  Actual Average Record
Temperature  
Mean Temperature 46 °F 37 °F  
Max Temperature 63 °F 46 °F 77 °F (1924)
Min Temperature 29 °F 28 °F 9 °F (1926)
Degree Days  
Heating Degree Days 19 28  
Month to date heating degree days 466 494  
Since 1 July heating degree days 1409 1385  
Cooling Degree Days 0 0  
Month to date cooling degree days 18 0  
Year to date cooling degree days 1164 1035  
Moisture  
Dew Point 22 °F    
Average Humidity 42    
Maximum Humidity 63    
Minimum Humidity 21    
Precipitation  
Precipitation 0.00 in 0.11 in 1.45 in (2009)
Month to date precipitation 1.46 2.16  
Year to date precipitation 42.02 41.72  
Sea Level Pressure  
Sea Level Pressure 30.15 in    
Wind  
Wind Speed 10 mph (SSW)    
Max Wind Speed 18 mph    
Max Gust Speed 30 mph    
Visibility 10 miles    
Events      
T = Trace of Precipitation, MM = Missing Value Source: NWS Daily Summary

Daily Weather History Graph

Daily Weather History Graph

Search for Another Location

Airport or City:

Trip Planner

Search our weather history database for the weather conditions in past years. The results will help you decide how hot, cold, wet, or windy it might be!

Date:

Astronomy

Dec. 19, 2013 Rise Set
Actual Time 7:25 AM EST 4:56 PM EST
Civil Twilight 6:56 AM EST 5:26 PM EST
Nautical Twilight 6:22 AM EST 5:59 PM EST
Astronomical Twilight 5:50 AM EST 6:31 PM EST
Moon 7:18 PM EST 8:44 AM EST
Length of Visible Light 10h 30m
Length of Day
9h 30m
Waning Gibbous, 95% of the Moon is Illuminated
Dec 19
Waning Gibbous
Dec 25
Last Quarter
Jan 1
New
Jan 7
First Quarter
Jan 15
Full

Hourly Weather History & Observations

Time (EST) Temp. Windchill Dew Point Humidity Pressure Visibility Wind Dir Wind Speed Gust Speed Precip Events Conditions
12:53 AM 32.0 °F 27.5 °F 16.0 °F 52% 30.19 in 10.0 mi South 4.6 mph - N/A   Clear
1:53 AM 34.0 °F 27.2 °F 17.1 °F 50% 30.19 in 10.0 mi South 8.1 mph - N/A   Clear
2:53 AM 32.0 °F 24.8 °F 19.0 °F 59% 30.18 in 10.0 mi SSW 8.1 mph - N/A   Clear
3:53 AM 30.9 °F 24.3 °F 19.0 °F 61% 30.17 in 10.0 mi South 6.9 mph - N/A   Clear
4:53 AM 33.1 °F 24.9 °F 19.0 °F 56% 30.16 in 10.0 mi SSW 10.4 mph - N/A   Clear
5:53 AM 33.1 °F 26.9 °F 18.0 °F 54% 30.16 in 10.0 mi SSW 6.9 mph - N/A   Clear
6:53 AM 32.0 °F 26.4 °F 18.0 °F 56% 30.17 in 10.0 mi SSW 5.8 mph - N/A   Clear
7:53 AM 34.0 °F 26.0 °F 19.9 °F 56% 30.17 in 10.0 mi SSW 10.4 mph - N/A   Clear
8:53 AM 37.0 °F 29.8 °F 19.9 °F 50% 30.17 in 10.0 mi South 10.4 mph - N/A   Clear
9:53 AM 46.0 °F 41.9 °F 21.0 °F 37% 30.17 in 10.0 mi South 8.1 mph - N/A   Clear
10:53 AM 51.1 °F - 21.9 °F 32% 30.16 in 10.0 mi South 12.7 mph - N/A   Clear
11:53 AM 57.0 °F - 23.0 °F 27% 30.14 in 10.0 mi SW 15.0 mph - N/A   Clear
12:53 PM 61.0 °F - 21.9 °F 22% 30.12 in 10.0 mi SW 16.1 mph - N/A   Clear
1:53 PM 62.1 °F - 23.0 °F 22% 30.09 in 10.0 mi WSW 13.8 mph 23.0 mph N/A   Clear
2:53 PM 63.0 °F - 24.1 °F 23% 30.09 in 10.0 mi SW 13.8 mph 23.0 mph N/A   Clear
3:53 PM 62.1 °F - 25.0 °F 24% 30.10 in 10.0 mi South 12.7 mph - N/A   Clear
4:53 PM 57.9 °F - 25.0 °F 28% 30.12 in 10.0 mi SSW 13.8 mph - N/A   Clear
5:53 PM 57.0 °F - 25.0 °F 29% 30.14 in 10.0 mi SSW 13.8 mph - N/A   Clear
6:53 PM 53.1 °F - 25.0 °F 34% 30.15 in 10.0 mi SSW 9.2 mph - N/A   Clear
7:53 PM 50.0 °F - 26.1 °F 39% 30.16 in 10.0 mi SSW 9.2 mph - N/A   Clear
8:53 PM 46.9 °F - 25.0 °F 42% 30.16 in 10.0 mi South 8.1 mph - N/A   Clear
9:53 PM 48.9 °F - 26.1 °F 41% 30.16 in 10.0 mi SSW 9.2 mph - N/A   Clear
10:53 PM 48.9 °F - 25.0 °F 39% 30.14 in 10.0 mi South 8.1 mph - N/A   Clear
11:53 PM 48.0 °F - 25.0 °F 41% 30.13 in 10.0 mi South 8.1 mph - N/A   Clear